GW1158 Weather Reports


Display with metric or nautical units.
time (UTC)temp
F
wind
direction
speed
MPH
gust
MPH
rain 1hr
in
rain 24hr
in
rain mn
in
humidity
%
barometer
mb
20260502130536 35 240 1.0 2.0 0.00 0.00 0.00 46 1024.9
20260502130103 34 230 1.0 2.0 0.00 0.00 0.00 45 1024.8
20260502123533 34 231 0.0 3.0 0.00 0.00 0.00 47 1024.7
20260502123044 34 225 1.0 2.0 0.00 0.00 0.00 47 1024.6
20260502122533 34 0 0.0 2.0 0.00 0.00 0.00 46 1024.7
20260502122033 34 235 1.0 2.0 0.00 0.00 0.00 46 1024.7
20260502121543 34 233 1.0 2.0 0.00 0.00 0.00 45 1024.6
20260502121035 34 239 0.0 2.0 0.00 0.00 0.00 45 1024.6
20260502120533 34 226 1.0 2.0 0.00 0.00 0.00 45 1024.6
20260502120110 34 246 0.0 2.0 0.00 0.00 0.00 45 1024.6
20260502115536 34 0 0.0 2.0 0.00 0.00 0.00 46 1024.6
20260502115034 34 240 0.0 2.0 0.00 0.00 0.00 46 1024.6
20260502114553 34 222 1.0 2.0 0.00 0.00 0.00 46 1024.6
20260502114034 34 216 0.0 2.0 0.00 0.00 0.00 46 1024.7
20260502113534 34 229 1.0 2.0 0.00 0.00 0.00 45 1024.7
20260502113055 34 226 2.0 2.0 0.00 0.00 0.00 46 1024.7
20260502112533 34 237 0.0 2.0 0.00 0.00 0.00 46 1024.8
20260502112036 34 236 1.0 2.0 0.00 0.00 0.00 46 1024.7
20260502111547 34 233 0.0 3.0 0.00 0.00 0.00 46 1024.8
20260502111034 35 233 2.0 3.0 0.00 0.00 0.00 45 1024.7
20260502110537 35 241 1.0 3.0 0.00 0.00 0.00 45 1024.8
20260502110047 35 239 0.0 2.0 0.00 0.00 0.00 45 1024.8
20260502105533 35 239 0.0 2.0 0.00 0.00 0.00 45 1024.9
20260502105034 35 241 1.0 3.0 0.00 0.00 0.00 45 1024.9
20260502104548 35 233 0.0 3.0 0.00 0.00 0.00 45 1025.0
20260502104035 35 238 1.0 3.0 0.00 0.00 0.00 46 1024.9
20260502103535 35 248 0.0 2.0 0.00 0.00 0.00 46 1024.9
20260502103107 35 0 0.0 2.0 0.00 0.00 0.00 45 1024.9
20260502102534 35 224 0.0 2.0 0.00 0.00 0.00 45 1024.9
20260502102033 34 231 0.0 2.0 0.00 0.00 0.00 46 1024.9
20260502101550 35 225 0.0 1.0 0.00 0.00 0.00 46 1024.8
20260502101032 35 0 0.0 1.0 0.00 0.00 0.00 46 1024.8
20260502100534 35 210 0.0 1.0 0.00 0.00 0.00 46 1024.8
20260502091032 33 0 0.0 0.0 0.00 0.00 0.00 52 1024.9
20260502090532 34 0 0.0 0.0 0.00 0.00 0.00 49 1024.8
20260502071034 40 228 1.0 2.0 0.00 0.00 0.00 39 1024.8
20260502070533 39 251 0.0 4.0 0.00 0.00 0.00 39 1024.7
20260502070045 40 252 1.0 4.0 0.00 0.00 0.00 40 1024.7
20260502065532 39 0 0.0 3.0 0.00 0.00 0.00 39 1024.7
20260502065030 40 249 2.0 3.0 0.00 0.00 0.00 39 1024.6
20260502064545 39 10 0.0 3.0 0.00 0.00 0.00 39 1024.6
20260502064033 39 306 0.0 3.0 0.00 0.00 0.00 39 1024.6
20260502063534 39 235 1.0 3.0 0.00 0.00 0.00 40 1024.5
20260502063050 40 236 1.0 3.0 0.00 0.00 0.00 40 1024.5
20260502062533 40 257 1.0 3.0 0.00 0.00 0.00 39 1024.5
20260502062033 40 239 1.0 2.0 0.00 0.00 0.00 39 1024.5
20260502061543 39 0 0.0 2.0 0.00 0.00 0.00 39 1024.4
20260502061032 39 0 1.0 2.0 0.00 0.00 0.00 40 1024.4
20260502060533 39 239 0.0 1.0 0.00 0.00 0.00 40 1024.4
20260502060044 39 239 0.0 1.0 0.00 0.00 0.00 41 1024.2
20260502055533 39 239 0.0 1.0 0.00 0.00 0.00 40 1024.2
20260502055029 38 237 0.0 1.0 0.00 0.00 0.00 42 1024.3
20260502054554 37 0 0.0 1.0 0.00 0.00 0.00 42 1024.3
20260502054033 38 0 0.0 0.0 0.00 0.00 0.00 40 1024.3
20260502053532 39 0 0.0 0.0 0.00 0.00 0.00 39 1024.2
20260502053048 39 0 0.0 1.0 0.00 0.00 0.00 40 1024.2
20260502052535 40 0 0.0 1.0 0.00 0.00 0.00 39 1024.0
20260502052033 40 0 0.0 1.0 0.00 0.00 0.00 38 1024.0
20260502051541 40 281 0.0 1.0 0.00 0.00 0.00 38 1024.0
20260502051033 40 0 0.0 1.0 0.00 0.00 0.00 39 1023.9
20260502050534 40 0 0.0 2.0 0.00 0.00 0.00 40 1024.0
20260502050039 40 0 0.0 2.0 0.00 0.00 0.00 38 1023.9
20260502045536 40 233 1.0 2.0 0.00 0.00 0.00 40 1023.9
20260502045033 40 221 1.0 1.0 0.00 0.00 0.00 39 1024.0
20260502044541 41 229 0.0 2.0 0.00 0.00 0.00 40 1024.0
20260502044032 41 0 0.0 2.0 0.00 0.00 0.00 38 1024.0
20260502043529 41 229 1.0 2.0 0.00 0.00 0.00 37 1023.9
20260502043050 41 0 0.0 2.0 0.00 0.00 0.00 37 1024.0
20260502042532 43 248 0.0 2.0 0.00 0.00 0.00 35 1023.9
20260502042032 44 246 1.0 2.0 0.00 0.00 0.00 34 1023.9
20260502041547 44 100 0.0 2.0 0.00 0.00 0.00 33 1023.9
20260502041033 45 0 0.0 6.0 0.00 0.00 0.00 32 1023.9
20260502040533 46 260 2.0 7.0 0.00 0.00 0.00 30 1023.8
20260502040051 46 212 1.0 10.0 0.00 0.00 0.00 31 1023.6
20260502035533 46 99 2.0 10.0 0.00 0.00 0.00 31 1023.4
20260502035035 46 75 4.0 10.0 0.00 0.00 0.00 31 1023.4
20260502034545 45 335 2.0 8.0 0.00 0.00 0.00 32 1023.2
20260502034035 46 350 4.0 8.0 0.00 0.00 0.00 31 1023.3
20260502033534 45 23 2.0 7.0 0.00 0.00 0.00 31 1023.2
20260502033044 45 77 1.0 5.0 0.00 0.00 0.00 31 1023.2
20260502032535 45 136 0.0 9.0 0.00 0.00 0.00 31 1023.2
20260502032035 46 290 3.0 9.0 0.00 0.00 0.00 31 1023.1
20260502031543 46 24 3.0 7.0 0.00 0.00 0.00 30 1023.0
20260502031034 45 68 2.0 6.0 0.00 0.00 0.00 31 1022.8
20260502030533 45 51 0.0 9.0 0.00 0.00 0.00 30 1022.8
20260502030048 46 79 1.0 9.0 0.00 0.00 0.00 30 1022.7
20260502025535 45 103 1.0 4.0 0.00 0.00 0.00 30 1022.5
20260502025033 46 197 2.0 4.0 0.00 0.00 0.00 30 1022.4
20260502024545 48 217 0.0 1.0 0.00 0.00 0.00 27 1022.3
20260502024034 49 222 0.0 3.0 0.00 0.00 0.00 25 1022.2
20260502023533 49 0 0.0 3.0 0.00 0.00 0.00 24 1022.1
20260502023044 50 136 0.0 3.0 0.00 0.00 0.00 23 1022.0
20260502022536 50 122 1.0 3.0 0.00 0.00 0.00 23 1021.9
20260502022033 51 160 0.0 2.0 0.00 0.00 0.00 23 1022.0
20260502021544 51 165 0.0 3.0 0.00 0.00 0.00 22 1021.9
20260502021036 52 200 1.0 3.0 0.00 0.00 0.00 22 1021.9
20260502020535 52 154 1.0 3.0 0.00 0.00 0.00 21 1021.8
20260502020049 53 139 2.0 4.0 0.00 0.00 0.00 20 1021.7
20260502015535 54 168 1.0 4.0 0.00 0.00 0.00 20 1021.7
20260502015034 55 139 0.0 5.0 0.00 0.00 0.00 19 1021.7
20260502014542 55 159 1.0 5.0 0.00 0.00 0.00 19 1021.6
20260502014037 55 203 1.0 5.0 0.00 0.00 0.00 19 1021.7
20260502013533 55 98 1.0 3.0 0.00 0.00 0.00 19 1021.6
20260502013056 55 88 1.0 2.0 0.00 0.00 0.00 19 1021.5
20260502012535 55 0 0.0 5.0 0.00 0.00 0.00 19 1021.5
20260502012033 55 0 1.0 5.0 0.00 0.00 0.00 19 1021.4
20260502011547 54 82 2.0 7.0 0.00 0.00 0.00 19 1021.5
20260502011033 55 63 1.0 7.0 0.00 0.00 0.00 19 1021.4
20260502010534 56 62 0.0 7.0 0.00 0.00 0.00 19 1021.5
20260502010049 55 155 1.0 7.0 0.00 0.00 0.00 18 1021.4
20260502005533 55 83 3.0 7.0 0.00 0.00 0.00 19 1021.4
20260502005035 55 84 2.0 7.0 0.00 0.00 0.00 20 1021.3
20260502004543 55 26 2.0 12.0 0.00 0.00 0.00 18 1021.4
20260502004035 55 65 2.0 12.0 0.00 0.00 0.00 19 1021.4
20260502003535 55 146 4.0 13.0 0.00 0.00 0.00 18 1021.4
20260502003043 55 56 5.0 13.0 0.00 0.00 0.00 19 1021.4
20260502002533 55 352 3.0 8.0 0.00 0.00 0.00 18 1021.4
20260502002033 55 131 3.0 8.0 0.00 0.00 0.00 18 1021.5
20260502001547 55 54 3.0 8.0 0.00 0.00 0.00 19 1021.4
20260502001034 55 40 4.0 8.0 0.00 0.00 0.00 18 1021.5
20260502000533 55 78 2.0 8.0 0.00 0.00 0.00 17 1021.5
20260502000046 55 191 3.0 8.0 0.00 0.00 0.00 18 1021.5
20260501235533 55 71 2.0 11.0 0.00 0.00 0.00 19 1021.5
20260501235033 55 354 2.0 11.0 0.00 0.00 0.00 17 1021.5
20260501234542 55 38 6.0 11.0 0.00 0.00 0.00 18 1021.5
20260501234035 55 37 4.0 8.0 0.00 0.00 0.00 18 1021.5
20260501233533 55 55 3.0 8.0 0.00 0.00 0.00 19 1021.5
20260501233050 55 11 3.0 11.0 0.00 0.00 0.00 17 1021.5
20260501232533 55 25 7.0 11.0 0.00 0.00 0.00 18 1021.7
20260501232033 55 2 5.0 8.0 0.00 0.00 0.00 18 1021.6
20260501231543 55 17 4.0 7.0 0.00 0.00 0.00 17 1021.7
20260501231033 55 66 4.0 13.0 0.00 0.00 0.00 17 1021.7
20260501230533 55 245 5.0 13.0 0.00 0.00 0.00 18 1021.7
20260501230043 55 16 5.0 10.0 0.00 0.00 0.00 18 1021.7
20260501225533 55 360 6.0 14.0 0.00 0.00 0.00 18 1021.7
20260501225033 55 48 5.0 15.0 0.00 0.00 0.00 18 1021.6
20260501224549 55 72 8.0 15.0 0.00 0.00 0.00 19 1021.7
20260501224033 55 336 2.0 14.0 0.00 0.00 0.00 18 1021.6
20260501223533 55 32 6.0 14.0 0.00 0.00 0.00 19 1021.7
20260501223054 55 343 7.0 15.0 0.00 0.00 0.00 18 1021.7
20260501222533 55 56 5.0 15.0 0.00 0.00 0.00 18 1021.7
20260501222033 55 35 4.0 10.0 0.00 0.00 0.00 18 1021.6
20260501221541 55 13 4.0 10.0 0.00 0.00 0.00 18 1021.8
20260501221033 56 25 7.0 10.0 0.00 0.00 0.00 19 1021.7
20260501220535 55 206 2.0 6.0 0.00 0.00 0.00 18 1021.6
20260501220040 55 207 2.0 7.0 0.00 0.00 0.00 19 1021.8
20260501215535 54 4 4.0 13.0 0.00 0.00 0.00 19 1021.8
20260501215037 54 21 5.0 13.0 0.00 0.00 0.00 18 1021.9
20260501214543 55 55 2.0 6.0 0.00 0.00 0.00 19 1021.9
20260501214033 55 200 2.0 9.0 0.00 0.00 0.00 19 1021.9
20260501213534 55 13 5.0 9.0 0.00 0.00 0.00 19 1022.0
20260501213048 55 56 3.0 7.0 0.00 0.00 0.00 21 1022.0
20260501212530 55 281 3.0 7.0 0.00 0.00 0.00 20 1022.0
20260501212030 56 290 2.0 7.0 0.00 0.00 0.00 23 1022.0
20260501211555 55 252 2.0 7.0 0.00 0.00 0.00 22 1022.0
20260501211029 54 248 2.0 7.0 0.00 0.00 0.00 27 1022.1
20260501210530 54 332 2.0 6.0 0.00 0.00 0.00 23 1022.2
20260501210044 54 354 2.0 6.0 0.00 0.00 0.00 26 1022.2
20260501205531 55 301 2.0 6.0 0.00 0.00 0.00 25 1022.2
20260501205030 55 309 2.0 6.0 0.00 0.00 0.00 24 1022.3
20260501204609 55 349 1.0 6.0 0.00 0.00 0.00 28 1022.3
20260501204033 54 244 2.0 6.0 0.00 0.00 0.00 27 1022.2
20260501203535 54 141 1.0 6.0 0.00 0.00 0.00 29 1022.4
20260501203059 53 271 3.0 6.0 0.00 0.00 0.00 27 1022.4
20260501202532 54 297 2.0 6.0 0.00 0.00 0.00 28 1022.5
20260501202032 53 342 2.0 5.0 0.00 0.00 0.00 27 1022.4
20260501201546 53 360 1.0 6.0 0.00 0.00 0.00 29 1022.4
20260501201035 52 23 3.0 7.0 0.00 0.00 0.00 27 1022.5
20260501200533 53 309 2.0 7.0 0.00 0.00 0.00 28 1022.5
20260501200050 53 245 2.0 6.0 0.00 0.00 0.00 28 1022.5
20260501195533 52 14 2.0 9.0 0.00 0.00 0.00 29 1022.5
20260501195035 52 191 4.0 9.0 0.00 0.00 0.00 26 1022.6
20260501194544 52 29 1.0 4.0 0.00 0.00 0.00 29 1022.5
20260501194030 52 37 2.0 6.0 0.00 0.00 0.00 27 1022.6
20260501193537 52 238 2.0 6.0 0.00 0.00 0.00 28 1022.7
20260501193047 53 311 1.0 6.0 0.00 0.00 0.00 28 1022.7
20260501192534 52 255 2.0 4.0 0.00 0.00 0.00 30 1022.8
20260501192033 51 229 1.0 7.0 0.00 0.00 0.00 30 1022.7
20260501191543 50 337 3.0 7.0 0.00 0.00 0.00 30 1022.8
20260501191036 50 262 2.0 5.0 0.00 0.00 0.00 27 1022.9
20260501190533 50 326 2.0 4.0 0.00 0.00 0.00 27 1022.9
20260501190046 50 299 1.0 4.0 0.00 0.00 0.00 28 1022.9
20260501185530 51 312 2.0 4.0 0.00 0.00 0.00 27 1022.9
20260501185035 50 4 1.0 4.0 0.00 0.00 0.00 29 1022.9
20260501184546 49 254 1.0 5.0 0.00 0.00 0.00 33 1023.0
20260501184030 49 351 1.0 5.0 0.00 0.00 0.00 33 1023.1
20260501183530 49 347 2.0 4.0 0.00 0.00 0.00 33 1023.2
20260501183044 49 269 2.0 4.0 0.00 0.00 0.00 33 1023.1
20260501182529 48 41 1.0 5.0 0.00 0.00 0.00 33 1023.1
20260501182029 47 358 3.0 5.0 0.00 0.00 0.00 37 1023.2
20260501181551 47 316 1.0 5.0 0.00 0.00 0.00 36 1023.2
20260501181030 47 321 2.0 5.0 0.00 0.00 0.00 37 1023.2
20260501180529 47 285 2.0 5.0 0.00 0.00 0.00 40 1023.2
20260501180057 46 9 2.0 5.0 0.00 0.00 0.00 39 1023.3
20260501175531 46 295 2.0 5.0 0.00 0.00 0.00 40 1023.4
20260501175033 46 292 2.0 4.0 0.00 0.00 0.00 40 1023.5
20260501174545 47 2 2.0 4.0 0.00 0.00 0.00 40 1023.4
20260501174030 47 305 2.0 4.0 0.00 0.00 0.00 40 1023.4
20260501173533 47 338 1.0 4.0 0.00 0.00 0.00 42 1023.5
20260501173040 47 338 1.0 5.0 0.00 0.00 0.00 41 1023.4
20260501172530 47 247 1.0 5.0 0.00 0.00 0.00 43 1023.5
20260501172030 46 250 3.0 5.0 0.00 0.00 0.00 43 1023.6
20260501171556 46 28 2.0 4.0 0.00 0.00 0.00 43 1023.7
20260501171032 47 357 1.0 6.0 0.00 0.00 0.00 44 1023.7
20260501170533 46 11 1.0 6.0 0.00 0.00 0.00 44 1023.7
20260501170043 46 243 2.0 6.0 0.00 0.00 0.00 43 1023.7
20260501165536 46 262 1.0 8.0 0.00 0.00 0.00 45 1023.7
20260501165034 46 200 2.0 8.0 0.00 0.00 0.00 46 1023.6
20260501164544 45 257 1.0 3.0 0.00 0.00 0.00 46 1023.6
20260501164033 45 343 1.0 5.0 0.00 0.00 0.00 45 1023.7
20260501163534 45 257 1.0 8.0 0.00 0.00 0.00 47 1023.7
20260501163047 45 347 2.0 8.0 0.00 0.00 0.00 48 1023.6
20260501162533 45 27 2.0 5.0 0.00 0.00 0.00 46 1023.5
20260501162030 45 319 1.0 5.0 0.00 0.00 0.00 46 1023.5
20260501161544 45 281 1.0 5.0 0.00 0.00 0.00 47 1023.6
20260501161030 45 294 1.0 4.0 0.00 0.00 0.00 46 1023.5
20260501160531 45 46 0.0 4.0 0.00 0.00 0.00 46 1023.4
20260501160048 44 256 1.0 4.0 0.00 0.00 0.00 47 1023.4
20260501155530 44 329 1.0 4.0 0.00 0.00 0.00 46 1023.5
20260501155030 44 219 1.0 4.0 0.00 0.00 0.00 46 1023.5
20260501154546 44 170 1.0 4.0 0.00 0.00 0.00 44 1023.4
20260501154030 43 318 1.0 6.0 0.00 0.00 0.00 42 1023.4
20260501153533 43 326 1.0 6.0 0.00 0.00 0.00 45 1023.4
20260501153041 43 338 2.0 6.0 0.00 0.00 0.00 46 1023.5
20260501152531 43 293 2.0 6.0 0.00 0.00 0.00 42 1023.5
20260501152031 43 289 1.0 6.0 0.00 0.00 0.00 42 1023.5
20260501151550 43 253 1.0 5.0 0.00 0.00 0.00 42 1023.5
20260501151030 43 338 0.0 4.0 0.00 0.00 0.00 44 1023.5
20260501150530 42 338 1.0 3.0 0.00 0.00 0.00 43 1023.5
20260501150046 42 256 1.0 3.0 0.00 0.00 0.00 38 1023.5
20260501145533 41 82 0.0 2.0 0.00 0.00 0.00 38 1023.6
20260501145032 41 39 0.0 2.0 0.00 0.00 0.00 39 1023.5
20260501144544 40 15 0.0 2.0 0.00 0.00 0.00 39 1023.5
20260501144030 40 20 1.0 2.0 0.00 0.00 0.00 38 1023.4
20260501143531 40 30 0.0 2.0 0.00 0.00 0.00 40 1023.5
20260501143041 39 248 0.0 1.0 0.00 0.00 0.00 41 1023.4
20260501142530 38 236 0.0 3.0 0.00 0.00 0.00 42 1023.5